• In Österreich
  • Länderverzeichnis
  • Für 7 Tage
  • Wassertemperatur
  • Satellitenkarten
  • Wetterkarte
  • News
  • Widgets
  • user-avatar
    Anmelden

    Stündliche Wetter Poreba

    Heute, 25 Juni, Montag

    Zeit Temperatur Niederschläge Wind Luftdruck Luftfeuchtigkeit
    00:00 +12°C° 0 mm 2 m/S 760 mmHg 95%
    01:00 +11°C° 0 mm 1 m/S 760 mmHg 96%
    02:00 +11°C° 0 mm 1 m/S 760 mmHg 96%
    03:00 +11°C° 0 mm 1 m/S 761 mmHg 96%
    04:00 +10°C° 0 mm 2 m/S 761 mmHg 97%
    05:00 +12°C° 0 mm 2 m/S 761 mmHg 93%
    06:00 +14°C° 0 mm 2 m/S 761 mmHg 90%
    07:00 +15°C° 0 mm 2 m/S 761 mmHg 87%
    08:00 +17°C° 0 mm 3 m/S 761 mmHg 78%
    09:00 +18°C° 0 mm 3 m/S 761 mmHg 70%
    10:00 +20°C° 0 mm 4 m/S 761 mmHg 62%
    11:00 +21°C° 0,1 mm 4 m/S 761 mmHg 58%
    12:00 +22°C° 0,1 mm 4 m/S 761 mmHg 54%
    13:00 +23°C° 0,1 mm 5 m/S 761 mmHg 50%
    14:00 +23°C° 0,4 mm 4 m/S 761 mmHg 53%
    15:00 +22°C° 0,4 mm 4 m/S 761 mmHg 56%
    16:00 +22°C° 0,4 mm 4 m/S 761 mmHg 59%
    17:00 +21°C° 0,2 mm 4 m/S 761 mmHg 63%
    18:00 +20°C° 0,2 mm 3 m/S 761 mmHg 68%
    19:00 +20°C° 0,2 mm 2 m/S 761 mmHg 72%
    20:00 +18°C° 0 mm 2 m/S 761 mmHg 77%
    21:00 +17°C° 0 mm 2 m/S 761 mmHg 82%
    22:00 +15°C° 0 mm 2 m/S 762 mmHg 87%
    23:00 +15°C° 0 mm 2 m/S 762 mmHg 89%

    Morgen, 26 Juni, Dienstag

    Zeit Temperatur Niederschläge Wind Luftdruck Luftfeuchtigkeit
    00:00 +15°C° 0 mm 2 m/S 762 mmHg 91%
    01:00 +14°C° 0 mm 2 m/S 762 mmHg 92%
    02:00 +14°C° 0 mm 2 m/S 762 mmHg 92%
    03:00 +14°C° 0 mm 2 m/S 762 mmHg 92%
    04:00 +14°C° 0 mm 2 m/S 762 mmHg 91%
    05:00 +14°C° 0 mm 3 m/S 762 mmHg 89%
    06:00 +16°C° 0 mm 3 m/S 762 mmHg 87%
    07:00 +17°C° 0 mm 3 m/S 762 mmHg 85%
    08:00 +19°C° 0 mm 4 m/S 762 mmHg 73%
    09:00 +21°C° 0 mm 4 m/S 763 mmHg 62%
    10:00 +22°C° 0 mm 4 m/S 763 mmHg 51%
    11:00 +23°C° 0 mm 5 m/S 763 mmHg 49%
    12:00 +23°C° 0 mm 5 m/S 762 mmHg 47%
    13:00 +25°C° 0 mm 5 m/S 762 mmHg 45%
    14:00 +25°C° 0 mm 5 m/S 762 mmHg 47%
    15:00 +25°C° 0 mm 5 m/S 762 mmHg 48%
    16:00 +23°C° 0 mm 5 m/S 762 mmHg 49%
    17:00 +22°C° 0 mm 4 m/S 762 mmHg 54%
    18:00 +21°C° 0 mm 4 m/S 763 mmHg 58%
    19:00 +21°C° 0 mm 4 m/S 763 mmHg 63%
    20:00 +19°C° 0 mm 3 m/S 763 mmHg 68%
    21:00 +17°C° 0 mm 3 m/S 764 mmHg 73%
    22:00 +16°C° 0 mm 3 m/S 764 mmHg 79%
    23:00 +14°C° 0 mm 3 m/S 764 mmHg 82%

    übermorgen, 27 Juni, Mittwoch

    Zeit Temperatur Niederschläge Wind Luftdruck Luftfeuchtigkeit
    00:00 +13°C° 0 mm 3 m/S 764 mmHg 86%
    01:00 +13°C° 0 mm 3 m/S 765 mmHg 89%
    02:00 +12°C° 0 mm 3 m/S 765 mmHg 91%
    03:00 +12°C° 0 mm 3 m/S 765 mmHg 93%
    04:00 +12°C° 0 mm 3 m/S 765 mmHg 95%
    05:00 +13°C° 0 mm 3 m/S 765 mmHg 89%
    06:00 +16°C° 0 mm 3 m/S 765 mmHg 82%
    07:00 +18°C° 0 mm 3 m/S 765 mmHg 76%
    08:00 +19°C° 0 mm 4 m/S 765 mmHg 69%
    09:00 +21°C° 0 mm 4 m/S 765 mmHg 63%
    10:00 +23°C° 0 mm 4 m/S 765 mmHg 56%
    11:00 +23°C° 0 mm 4 m/S 765 mmHg 53%
    12:00 +25°C° 0 mm 4 m/S 765 mmHg 50%
    13:00 +26°C° 0 mm 4 m/S 765 mmHg 46%
    14:00 +26°C° 0 mm 4 m/S 765 mmHg 46%
    15:00 +27°C° 0 mm 4 m/S 764 mmHg 46%
    16:00 +27°C° 0 mm 4 m/S 764 mmHg 46%
    17:00 +26°C° 0 mm 4 m/S 764 mmHg 53%
    18:00 +25°C° 0 mm 3 m/S 765 mmHg 59%
    19:00 +22°C° 0 mm 3 m/S 765 mmHg 66%
    20:00 +21°C° 0 mm 3 m/S 765 mmHg 72%
    21:00 +20°C° 0 mm 3 m/S 765 mmHg 78%
    22:00 +19°C° 0 mm 3 m/S 765 mmHg 84%
    23:00 +18°C° 0 mm 3 m/S 765 mmHg 86%

    28 Juni, Donnerstag

    Zeit Temperatur Niederschläge Wind Luftdruck Luftfeuchtigkeit
    00:00 +18°C° 0 mm 3 m/S 765 mmHg 88%
    01:00 +17°C° 0 mm 3 m/S 765 mmHg 91%
    02:00 +17°C° 0 mm 3 m/S 765 mmHg 91%
    03:00 +17°C° 0 mm 3 m/S 764 mmHg 91%
    04:00 +17°C° 0 mm 4 m/S 764 mmHg 91%
    05:00 +18°C° 0 mm 4 m/S 764 mmHg 85%
    06:00 +19°C° 0 mm 4 m/S 764 mmHg 79%
    07:00 +21°C° 0 mm 5 m/S 764 mmHg 73%
    08:00 +23°C° 0 mm 5 m/S 763 mmHg 66%
    09:00 +26°C° 0 mm 6 m/S 763 mmHg 58%
    10:00 +27°C° 0 mm 7 m/S 763 mmHg 50%
    11:00 +28°C° 0 mm 7 m/S 762 mmHg 48%
    12:00 +29°C° 0 mm 7 m/S 762 mmHg 46%
    13:00 +30°C° 0 mm 7 m/S 762 mmHg 44%
    14:00 +30°C° 0 mm 7 m/S 762 mmHg 44%
    15:00 +30°C° 0 mm 6 m/S 761 mmHg 44%
    16:00 +30°C° 0 mm 6 m/S 761 mmHg 44%
    17:00 +29°C° 0 mm 6 m/S 761 mmHg 50%
    18:00 +28°C° 0 mm 5 m/S 761 mmHg 55%
    19:00 +27°C° 0 mm 4 m/S 761 mmHg 60%
    20:00 +26°C° 0 mm 4 m/S 761 mmHg 63%
    21:00 +25°C° 0 mm 4 m/S 761 mmHg 65%
    22:00 +23°C° 0 mm 4 m/S 761 mmHg 68%
    23:00 +22°C° 0 mm 4 m/S 761 mmHg 71%

    29 Juni, Freitag

    Zeit Temperatur Niederschläge Wind Luftdruck Luftfeuchtigkeit
    00:00 +21°C° 0 mm 4 m/S 761 mmHg 73%
    01:00 +21°C° 0 mm 4 m/S 761 mmHg 76%
    02:00 +20°C° 0 mm 4 m/S 761 mmHg 78%
    03:00 +20°C° 0 mm 4 m/S 761 mmHg 80%
    04:00 +19°C° 0 mm 4 m/S 761 mmHg 83%
    05:00 +20°C° 0 mm 4 m/S 761 mmHg 79%
    06:00 +22°C° 0 mm 4 m/S 761 mmHg 75%
    07:00 +23°C° 0 mm 4 m/S 760 mmHg 71%
    08:00 +26°C° 0 mm 5 m/S 760 mmHg 65%
    09:00 +28°C° 0 mm 5 m/S 760 mmHg 59%
    10:00 +30°C° 0 mm 5 m/S 760 mmHg 52%
    11:00 +30°C° 0 mm 5 m/S 760 mmHg 50%
    12:00 +32°C° 0 mm 5 m/S 760 mmHg 48%
    13:00 +33°C° 0 mm 5 m/S 760 mmHg 45%
    14:00 +33°C° 0 mm 5 m/S 759 mmHg 45%
    15:00 +33°C° 0 mm 5 m/S 759 mmHg 45%
    16:00 +32°C° 0 mm 5 m/S 759 mmHg 45%
    17:00 +30°C° 0 mm 5 m/S 759 mmHg 48%
    18:00 +29°C° 0 mm 4 m/S 760 mmHg 51%
    19:00 +28°C° 0 mm 4 m/S 760 mmHg 54%
    20:00 +26°C° 0 mm 4 m/S 760 mmHg 57%
    21:00 +23°C° 0 mm 4 m/S 761 mmHg 61%
    22:00 +21°C° 0 mm 3 m/S 761 mmHg 64%
    23:00 +20°C° 0 mm 3 m/S 761 mmHg 68%

    30 Juni, Samstag

    Zeit Temperatur Niederschläge Wind Luftdruck Luftfeuchtigkeit
    00:00 +19°C° 0 mm 3 m/S 761 mmHg 72%
    01:00 +18°C° 0 mm 3 m/S 762 mmHg 76%
    02:00 +17°C° 0 mm 3 m/S 762 mmHg 76%
    03:00 +16°C° 0 mm 3 m/S 762 mmHg 76%
    04:00 +14°C° 0 mm 3 m/S 763 mmHg 76%
    05:00 +16°C° 0 mm 3 m/S 763 mmHg 68%
    06:00 +17°C° 0 mm 4 m/S 763 mmHg 61%
    07:00 +18°C° 0 mm 4 m/S 764 mmHg 54%
    08:00 +20°C° 0 mm 4 m/S 764 mmHg 48%
    09:00 +22°C° 0 mm 4 m/S 764 mmHg 42%
    10:00 +23°C° 0 mm 4 m/S 764 mmHg 36%
    11:00 +25°C° 0 mm 4 m/S 764 mmHg 34%
    12:00 +26°C° 0 mm 4 m/S 764 mmHg 32%
    13:00 +27°C° 0 mm 4 m/S 764 mmHg 29%
    14:00 +27°C° 0 mm 4 m/S 764 mmHg 30%
    15:00 +27°C° 0 mm 4 m/S 764 mmHg 31%
    16:00 +28°C° 0 mm 3 m/S 763 mmHg 32%
    17:00 +27°C° 0 mm 3 m/S 763 mmHg 38%
    18:00 +25°C° 0 mm 3 m/S 764 mmHg 44%
    19:00 +24°C° 0 mm 2 m/S 764 mmHg 50%
    20:00 +21°C° 0 mm 2 m/S 764 mmHg 54%
    21:00 +20°C° 0 mm 3 m/S 764 mmHg 58%
    22:00 +18°C° 0 mm 3 m/S 765 mmHg 62%
    23:00 +17°C° 0 mm 3 m/S 765 mmHg 64%
    Mehr zeigen